Year,Month,Day,Hour,Minute,Value (Times are PST for insolation in W/m^2)
2015,01,24,00,00,0.00
2015,01,24,00,01,0.00
2015,01,24,00,02,0.00
2015,01,24,00,03,0.00
2015,01,24,00,04,0.00
2015,01,24,00,05,0.00
2015,01,24,00,06,0.00
2015,01,24,00,07,0.00
2015,01,24,00,08,0.00
2015,01,24,00,09,0.00
2015,01,24,00,10,0.00
2015,01,24,00,11,0.00
2015,01,24,00,12,0.00
2015,01,24,00,13,0.00
2015,01,24,00,14,0.00
2015,01,24,00,15,0.00
2015,01,24,00,16,0.00
2015,01,24,00,17,0.00
2015,01,24,00,18,0.00
2015,01,24,00,19,0.00
2015,01,24,00,20,0.00
2015,01,24,00,21,0.00
2015,01,24,00,22,0.00
2015,01,24,00,23,0.00
2015,01,24,00,24,0.00
2015,01,24,00,25,0.00
2015,01,24,00,26,0.00
2015,01,24,00,27,0.00
2015,01,24,00,28,0.00
2015,01,24,00,29,0.00
2015,01,24,00,30,0.00
2015,01,24,00,31,0.00
2015,01,24,00,32,0.00
2015,01,24,00,33,0.00
2015,01,24,00,34,0.00
2015,01,24,00,35,0.00
2015,01,24,00,36,0.00
2015,01,24,00,37,0.00
2015,01,24,00,38,0.00
2015,01,24,00,39,0.00
2015,01,24,00,40,0.00
2015,01,24,00,41,0.00
2015,01,24,00,42,0.00
2015,01,24,00,43,0.00
2015,01,24,00,44,0.00
2015,01,24,00,45,0.00
2015,01,24,00,46,0.00
2015,01,24,00,47,0.00
2015,01,24,00,48,0.00
2015,01,24,00,49,0.00
2015,01,24,00,50,0.00
2015,01,24,00,51,0.00
2015,01,24,00,52,0.00
2015,01,24,00,53,0.00
2015,01,24,00,54,0.00
2015,01,24,00,55,0.00
2015,01,24,00,56,0.00
2015,01,24,00,57,0.00
2015,01,24,00,58,0.00
2015,01,24,00,59,0.00
2015,01,24,01,00,0.00
2015,01,24,01,01,0.00
2015,01,24,01,02,0.00
2015,01,24,01,03,0.00
2015,01,24,01,04,0.00
2015,01,24,01,05,0.00
2015,01,24,01,06,0.00
2015,01,24,01,07,0.00
2015,01,24,01,08,0.00
2015,01,24,01,09,0.00
2015,01,24,01,10,0.00
2015,01,24,01,11,0.00
2015,01,24,01,12,0.00
2015,01,24,01,13,0.00
2015,01,24,01,14,0.00
2015,01,24,01,15,0.00
2015,01,24,01,16,0.00
2015,01,24,01,17,0.00
2015,01,24,01,18,0.00
2015,01,24,01,19,0.00
2015,01,24,01,20,0.00
2015,01,24,01,21,0.00
2015,01,24,01,22,0.00
2015,01,24,01,23,0.00
2015,01,24,01,24,0.00
2015,01,24,01,25,0.00
2015,01,24,01,26,0.00
2015,01,24,01,27,0.00
2015,01,24,01,28,0.00
2015,01,24,01,29,0.00
2015,01,24,01,30,0.00
2015,01,24,01,31,0.00
2015,01,24,01,32,0.00
2015,01,24,01,33,0.00
2015,01,24,01,34,0.00
2015,01,24,01,35,0.00
2015,01,24,01,36,0.00
2015,01,24,01,37,0.00
2015,01,24,01,38,0.00
2015,01,24,01,39,0.00
2015,01,24,01,40,0.00
2015,01,24,01,41,0.00
2015,01,24,01,42,0.00
2015,01,24,01,43,0.00
2015,01,24,01,44,0.00
2015,01,24,01,45,0.00
2015,01,24,01,46,0.00
2015,01,24,01,47,0.00
2015,01,24,01,48,0.00
2015,01,24,01,49,0.00
2015,01,24,01,50,0.00
2015,01,24,01,51,0.00
2015,01,24,01,52,0.00
2015,01,24,01,53,0.00
2015,01,24,01,54,0.00
2015,01,24,01,55,0.00
2015,01,24,01,56,0.00
2015,01,24,01,57,0.00
2015,01,24,01,58,0.00
2015,01,24,01,59,0.00
2015,01,24,02,00,0.00
2015,01,24,02,01,0.00
2015,01,24,02,02,0.00
2015,01,24,02,03,0.00
2015,01,24,02,04,0.00
2015,01,24,02,05,0.00
2015,01,24,02,06,0.00
2015,01,24,02,07,0.00
2015,01,24,02,08,0.00
2015,01,24,02,09,0.00
2015,01,24,02,10,0.00
2015,01,24,02,11,0.00
2015,01,24,02,12,0.00
2015,01,24,02,13,0.00
2015,01,24,02,14,0.00
2015,01,24,02,15,0.00
2015,01,24,02,16,0.00
2015,01,24,02,17,0.00
2015,01,24,02,18,0.00
2015,01,24,02,19,0.00
2015,01,24,02,20,0.00
2015,01,24,02,21,0.00
2015,01,24,02,22,0.00
2015,01,24,02,23,0.00
2015,01,24,02,24,0.00
2015,01,24,02,25,0.00
2015,01,24,02,26,0.00
2015,01,24,02,27,0.00
2015,01,24,02,28,0.00
2015,01,24,02,29,0.00
2015,01,24,02,30,0.00
2015,01,24,02,31,0.00
2015,01,24,02,32,0.00
2015,01,24,02,33,0.00
2015,01,24,02,34,0.00
2015,01,24,02,35,0.00
2015,01,24,02,36,0.00
2015,01,24,02,37,0.00
2015,01,24,02,38,0.00
2015,01,24,02,39,0.00
2015,01,24,02,40,0.00
2015,01,24,02,41,0.00
2015,01,24,02,42,0.00
2015,01,24,02,43,0.00
2015,01,24,02,44,0.00
2015,01,24,02,45,0.00
2015,01,24,02,46,0.00
2015,01,24,02,47,0.00
2015,01,24,02,48,0.00
2015,01,24,02,49,0.00
2015,01,24,02,50,0.00
2015,01,24,02,51,0.00
2015,01,24,02,52,0.00
2015,01,24,02,53,0.00
2015,01,24,02,54,0.00
2015,01,24,02,55,0.00
2015,01,24,02,56,0.00
2015,01,24,02,57,0.00
2015,01,24,02,58,0.00
2015,01,24,02,59,0.00
2015,01,24,03,00,0.00
2015,01,24,03,01,0.00
2015,01,24,03,02,0.00
2015,01,24,03,03,0.00
2015,01,24,03,04,0.00
2015,01,24,03,05,0.00
2015,01,24,03,06,0.00
2015,01,24,03,07,0.00
2015,01,24,03,08,0.00
2015,01,24,03,09,0.00
2015,01,24,03,10,0.00
2015,01,24,03,11,0.00
2015,01,24,03,12,0.00
2015,01,24,03,13,0.00
2015,01,24,03,14,0.00
2015,01,24,03,15,0.00
2015,01,24,03,16,0.00
2015,01,24,03,17,0.00
2015,01,24,03,18,0.00
2015,01,24,03,19,0.00
2015,01,24,03,20,0.00
2015,01,24,03,21,0.00
2015,01,24,03,22,0.00
2015,01,24,03,23,0.00
2015,01,24,03,24,0.00
2015,01,24,03,25,0.00
2015,01,24,03,26,0.00
2015,01,24,03,27,0.00
2015,01,24,03,28,0.00
2015,01,24,03,29,0.00
2015,01,24,03,30,0.00
2015,01,24,03,31,0.00
2015,01,24,03,32,0.00
2015,01,24,03,33,0.00
2015,01,24,03,34,0.00
2015,01,24,03,35,0.00
2015,01,24,03,36,0.00
2015,01,24,03,37,0.00
2015,01,24,03,38,0.00
2015,01,24,03,39,0.00
2015,01,24,03,40,0.00
2015,01,24,03,41,0.00
2015,01,24,03,42,0.00
2015,01,24,03,43,0.00
2015,01,24,03,44,0.00
2015,01,24,03,45,0.00
2015,01,24,03,46,0.00
2015,01,24,03,47,0.00
2015,01,24,03,48,0.00
2015,01,24,03,49,0.00
2015,01,24,03,50,0.00
2015,01,24,03,51,0.00
2015,01,24,03,52,0.00
2015,01,24,03,53,0.00
2015,01,24,03,54,0.00
2015,01,24,03,55,0.00
2015,01,24,03,56,0.00
2015,01,24,03,57,0.00
2015,01,24,03,58,0.00
2015,01,24,03,59,0.00
2015,01,24,04,00,0.00
2015,01,24,04,01,0.00
2015,01,24,04,02,0.00
2015,01,24,04,03,0.00
2015,01,24,04,04,0.00
2015,01,24,04,05,0.00
2015,01,24,04,06,0.00
2015,01,24,04,07,0.00
2015,01,24,04,08,0.00
2015,01,24,04,09,0.00
2015,01,24,04,10,0.00
2015,01,24,04,11,0.00
2015,01,24,04,12,0.00
2015,01,24,04,13,0.00
2015,01,24,04,14,0.00
2015,01,24,04,15,0.00
2015,01,24,04,16,0.00
2015,01,24,04,17,0.00
2015,01,24,04,18,0.00
2015,01,24,04,19,0.00
2015,01,24,04,20,0.00
2015,01,24,04,21,0.00
2015,01,24,04,22,0.00
2015,01,24,04,23,0.00
2015,01,24,04,24,0.00
2015,01,24,04,25,0.00
2015,01,24,04,26,0.00
2015,01,24,04,27,0.00
2015,01,24,04,28,0.00
2015,01,24,04,29,0.00
2015,01,24,04,30,0.00
2015,01,24,04,31,0.00
2015,01,24,04,32,0.00
2015,01,24,04,33,0.00
2015,01,24,04,34,0.00
2015,01,24,04,35,0.00
2015,01,24,04,36,0.00
2015,01,24,04,37,0.00
2015,01,24,04,38,0.00
2015,01,24,04,39,0.00
2015,01,24,04,40,0.00
2015,01,24,04,41,0.00
2015,01,24,04,42,0.00
2015,01,24,04,43,0.00
2015,01,24,04,44,0.00
2015,01,24,04,45,0.00
2015,01,24,04,46,0.00
2015,01,24,04,47,0.00
2015,01,24,04,48,0.00
2015,01,24,04,49,0.00
2015,01,24,04,50,0.00
2015,01,24,04,51,0.00
2015,01,24,04,52,0.00
2015,01,24,04,53,0.00
2015,01,24,04,54,0.00
2015,01,24,04,55,0.00
2015,01,24,04,56,0.00
2015,01,24,04,57,0.00
2015,01,24,04,58,0.00
2015,01,24,04,59,0.00
2015,01,24,05,00,0.00
2015,01,24,05,01,0.00
2015,01,24,05,02,0.00
2015,01,24,05,03,0.00
2015,01,24,05,04,0.00
2015,01,24,05,05,0.00
2015,01,24,05,06,0.00
2015,01,24,05,07,0.00
2015,01,24,05,08,0.00
2015,01,24,05,09,0.00
2015,01,24,05,10,0.00
2015,01,24,05,11,0.00
2015,01,24,05,12,0.00
2015,01,24,05,13,0.00
2015,01,24,05,14,0.00
2015,01,24,05,15,0.00
2015,01,24,05,16,0.00
2015,01,24,05,17,0.00
2015,01,24,05,18,0.00
2015,01,24,05,19,0.00
2015,01,24,05,20,0.00
2015,01,24,05,21,0.00
2015,01,24,05,22,0.00
2015,01,24,05,23,0.00
2015,01,24,05,24,0.00
2015,01,24,05,25,0.00
2015,01,24,05,26,0.00
2015,01,24,05,27,0.00
2015,01,24,05,28,0.00
2015,01,24,05,29,0.00
2015,01,24,05,30,0.00
2015,01,24,05,31,0.00
2015,01,24,05,32,0.00
2015,01,24,05,33,0.00
2015,01,24,05,34,0.00
2015,01,24,05,35,0.00
2015,01,24,05,36,0.00
2015,01,24,05,37,0.00
2015,01,24,05,38,0.00
2015,01,24,05,39,0.00
2015,01,24,05,40,0.00
2015,01,24,05,41,0.00
2015,01,24,05,42,0.00
2015,01,24,05,43,0.00
2015,01,24,05,44,0.00
2015,01,24,05,45,0.00
2015,01,24,05,46,0.00
2015,01,24,05,47,0.00
2015,01,24,05,48,0.00
2015,01,24,05,49,0.00
2015,01,24,05,50,0.00
2015,01,24,05,51,0.00
2015,01,24,05,52,0.00
2015,01,24,05,53,0.00
2015,01,24,05,54,0.00
2015,01,24,05,55,0.00
2015,01,24,05,56,0.00
2015,01,24,05,57,0.00
2015,01,24,05,58,0.00
2015,01,24,05,59,0.00
2015,01,24,06,00,0.00
2015,01,24,06,01,0.00
2015,01,24,06,02,0.00
2015,01,24,06,03,0.00
2015,01,24,06,04,0.00
2015,01,24,06,05,0.00
2015,01,24,06,06,0.00
2015,01,24,06,07,0.00
2015,01,24,06,08,0.00
2015,01,24,06,09,0.00
2015,01,24,06,10,0.00
2015,01,24,06,11,0.00
2015,01,24,06,12,0.00
2015,01,24,06,13,0.00
2015,01,24,06,14,0.00
2015,01,24,06,15,0.00
2015,01,24,06,16,0.00
2015,01,24,06,17,0.00
2015,01,24,06,18,0.00
2015,01,24,06,19,0.00
2015,01,24,06,20,0.00
2015,01,24,06,21,0.00
2015,01,24,06,22,0.00
2015,01,24,06,23,0.00
2015,01,24,06,24,0.00
2015,01,24,06,25,0.00
2015,01,24,06,26,0.00
2015,01,24,06,27,0.00
2015,01,24,06,28,0.00
2015,01,24,06,29,0.00
2015,01,24,06,30,0.00
2015,01,24,06,31,0.00
2015,01,24,06,32,0.00
2015,01,24,06,33,0.00
2015,01,24,06,34,0.00
2015,01,24,06,35,0.00
2015,01,24,06,36,0.00
2015,01,24,06,37,0.00
2015,01,24,06,38,0.00
2015,01,24,06,39,0.00
2015,01,24,06,40,0.00
2015,01,24,06,41,0.00
2015,01,24,06,42,0.00
2015,01,24,06,43,0.00
2015,01,24,06,44,0.00
2015,01,24,06,45,0.00
2015,01,24,06,46,0.00
2015,01,24,06,47,0.00
2015,01,24,06,48,0.00
2015,01,24,06,49,0.00
2015,01,24,06,50,0.00
2015,01,24,06,51,0.00
2015,01,24,06,52,0.00
2015,01,24,06,53,0.00
2015,01,24,06,54,0.00
2015,01,24,06,55,0.00
2015,01,24,06,56,0.00
2015,01,24,06,57,0.00
2015,01,24,06,58,0.00
2015,01,24,06,59,0.00
2015,01,24,07,00,0.00
2015,01,24,07,01,0.00
2015,01,24,07,02,0.00
2015,01,24,07,03,0.00
2015,01,24,07,04,0.00
2015,01,24,07,05,0.00
2015,01,24,07,06,0.00
2015,01,24,07,07,0.00
2015,01,24,07,08,0.00
2015,01,24,07,09,0.00
2015,01,24,07,10,0.00
2015,01,24,07,11,0.00
2015,01,24,07,12,0.00
2015,01,24,07,13,0.00
2015,01,24,07,14,0.00
2015,01,24,07,15,0.00
2015,01,24,07,16,0.00
2015,01,24,07,17,0.00
2015,01,24,07,18,0.00
2015,01,24,07,19,0.00
2015,01,24,07,20,0.00
2015,01,24,07,21,0.00
2015,01,24,07,22,0.00
2015,01,24,07,23,0.00
2015,01,24,07,24,0.00
2015,01,24,07,25,0.00
2015,01,24,07,26,0.00
2015,01,24,07,27,0.00
2015,01,24,07,28,0.00
2015,01,24,07,29,0.00
2015,01,24,07,30,0.00
2015,01,24,07,31,0.00
2015,01,24,07,32,0.00
2015,01,24,07,33,0.00
2015,01,24,07,34,0.00
2015,01,24,07,35,0.00
2015,01,24,07,36,0.00
2015,01,24,07,37,0.00
2015,01,24,07,38,0.00
2015,01,24,07,39,0.00
2015,01,24,07,40,0.00
2015,01,24,07,41,0.00
2015,01,24,07,42,0.00
2015,01,24,07,43,0.00
2015,01,24,07,44,0.00
2015,01,24,07,45,0.00
2015,01,24,07,46,0.00
2015,01,24,07,47,0.00
2015,01,24,07,48,0.00
2015,01,24,07,49,0.00
2015,01,24,07,50,0.00
2015,01,24,07,51,0.00
2015,01,24,07,52,0.00
2015,01,24,07,53,0.00
2015,01,24,07,54,0.00
2015,01,24,07,55,0.00
2015,01,24,07,56,0.00
2015,01,24,07,57,0.00
2015,01,24,07,58,0.00
2015,01,24,07,59,0.00
2015,01,24,08,00,0.00
2015,01,24,08,01,0.00
2015,01,24,08,02,0.00
2015,01,24,08,03,0.00
2015,01,24,08,04,0.00
2015,01,24,08,05,0.00
2015,01,24,08,06,0.00
2015,01,24,08,07,0.00
2015,01,24,08,08,0.00
2015,01,24,08,09,2.20
2015,01,24,08,10,6.00
2015,01,24,08,11,7.90
2015,01,24,08,12,9.00
2015,01,24,08,13,9.00
2015,01,24,08,14,9.00
2015,01,24,08,15,9.00
2015,01,24,08,16,9.00
2015,01,24,08,17,9.00
2015,01,24,08,18,9.00
2015,01,24,08,19,9.00
2015,01,24,08,20,9.00
2015,01,24,08,21,9.00
2015,01,24,08,22,8.10
2015,01,24,08,23,7.00
2015,01,24,08,24,7.90
2015,01,24,08,25,9.90
2015,01,24,08,26,12.40
2015,01,24,08,27,14.90
2015,01,24,08,28,16.00
2015,01,24,08,29,15.00
2015,01,24,08,30,12.60
2015,01,24,08,31,10.10
2015,01,24,08,32,9.00
2015,01,24,08,33,9.00
2015,01,24,08,34,9.00
2015,01,24,08,35,9.90
2015,01,24,08,36,11.00
2015,01,24,08,37,11.50
2015,01,24,08,38,12.90
2015,01,24,08,39,14.00
2015,01,24,08,40,14.00
2015,01,24,08,41,13.10
2015,01,24,08,42,11.60
2015,01,24,08,43,11.00
2015,01,24,08,44,11.00
2015,01,24,08,45,11.40
2015,01,24,08,46,12.00
2015,01,24,08,47,12.00
2015,01,24,08,48,12.90
2015,01,24,08,49,15.80
2015,01,24,08,50,20.20
2015,01,24,08,51,23.90
2015,01,24,08,52,25.00
2015,01,24,08,53,24.10
2015,01,24,08,54,22.10
2015,01,24,08,55,20.10
2015,01,24,08,56,18.50
2015,01,24,08,57,17.10
2015,01,24,08,58,16.00
2015,01,24,08,59,16.90
2015,01,24,09,00,19.40
2015,01,24,09,01,23.20
2015,01,24,09,02,27.80
2015,01,24,09,03,31.40
2015,01,24,09,04,33.90
2015,01,24,09,05,33.70
2015,01,24,09,06,27.70
2015,01,24,09,07,20.80
2015,01,24,09,08,15.30
2015,01,24,09,09,11.60
2015,01,24,09,10,9.10
2015,01,24,09,11,7.00
2015,01,24,09,12,7.00
2015,01,24,09,13,7.00
2015,01,24,09,14,7.00
2015,01,24,09,15,7.90
2015,01,24,09,16,10.40
2015,01,24,09,17,12.90
2015,01,24,09,18,14.90
2015,01,24,09,19,16.00
2015,01,24,09,20,15.10
2015,01,24,09,21,13.10
2015,01,24,09,22,11.60
2015,01,24,09,23,10.10
2015,01,24,09,24,9.00
2015,01,24,09,25,9.90
2015,01,24,09,26,11.40
2015,01,24,09,27,12.90
2015,01,24,09,28,14.90
2015,01,24,09,29,16.90
2015,01,24,09,30,18.00
2015,01,24,09,31,18.50
2015,01,24,09,32,19.90
2015,01,24,09,33,21.00
2015,01,24,09,34,21.00
2015,01,24,09,35,21.90
2015,01,24,09,36,24.40
2015,01,24,09,37,26.90
2015,01,24,09,38,28.00
2015,01,24,09,39,28.00
2015,01,24,09,40,28.00
2015,01,24,09,41,28.00
2015,01,24,09,42,28.00
2015,01,24,09,43,27.10
2015,01,24,09,44,26.90
2015,01,24,09,45,28.90
2015,01,24,09,46,30.90
2015,01,24,09,47,32.00
2015,01,24,09,48,32.00
2015,01,24,09,49,32.50
2015,01,24,09,50,33.00
2015,01,24,09,51,32.50
2015,01,24,09,52,31.10
2015,01,24,09,53,30.00
2015,01,24,09,54,30.00
2015,01,24,09,55,30.90
2015,01,24,09,56,32.50
2015,01,24,09,57,35.80
2015,01,24,09,58,41.20
2015,01,24,09,59,44.90
2015,01,24,10,00,46.00
2015,01,24,10,01,43.20
2015,01,24,10,02,36.80
2015,01,24,10,03,29.90
2015,01,24,10,04,24.60
2015,01,24,10,05,23.90
2015,01,24,10,06,27.20
2015,01,24,10,07,30.90
2015,01,24,10,08,33.30
2015,01,24,10,09,36.80
2015,01,24,10,10,39.50
2015,01,24,10,11,40.90
2015,01,24,10,12,39.80
2015,01,24,10,13,33.80
2015,01,24,10,14,28.10
2015,01,24,10,15,26.00
2015,01,24,10,16,26.90
2015,01,24,10,17,28.90
2015,01,24,10,18,29.10
2015,01,24,10,19,28.90
2015,01,24,10,20,32.20
2015,01,24,10,21,35.90
2015,01,24,10,22,36.10
2015,01,24,10,23,35.90
2015,01,24,10,24,38.50
2015,01,24,10,25,43.50
2015,01,24,10,26,50.00
2015,01,24,10,27,54.40
2015,01,24,10,28,58.70
2015,01,24,10,29,64.40
2015,01,24,10,30,69.20
2015,01,24,10,31,74.20
2015,01,24,10,32,75.60
2015,01,24,10,33,67.70
2015,01,24,10,34,51.90
2015,01,24,10,35,41.00
2015,01,24,10,36,43.30
2015,01,24,10,37,47.90
2015,01,24,10,38,50.00
2015,01,24,10,39,53.40
2015,01,24,10,40,59.20
2015,01,24,10,41,63.00
2015,01,24,10,42,62.50
2015,01,24,10,43,62.00
2015,01,24,10,44,69.00
2015,01,24,10,45,82.60
2015,01,24,10,46,94.50
2015,01,24,10,47,100.00
2015,01,24,10,48,98.70
2015,01,24,10,49,95.00
2015,01,24,10,50,91.60
2015,01,24,10,51,88.20
2015,01,24,10,52,86.00
2015,01,24,10,53,86.90
2015,01,24,10,54,86.20
2015,01,24,10,55,82.70
2015,01,24,10,56,79.20
2015,01,24,10,57,77.90
2015,01,24,10,58,81.20
2015,01,24,10,59,88.10
2015,01,24,11,00,96.20
2015,01,24,11,01,101.80
2015,01,24,11,02,104.50
2015,01,24,11,03,105.00
2015,01,24,11,04,103.70
2015,01,24,11,05,101.10
2015,01,24,11,06,100.90
2015,01,24,11,07,101.10
2015,01,24,11,08,98.70
2015,01,24,11,09,95.20
2015,01,24,11,10,90.60
2015,01,24,11,11,86.20
2015,01,24,11,12,84.00
2015,01,24,11,13,86.70
2015,01,24,11,14,89.00
2015,01,24,11,15,87.10
2015,01,24,11,16,90.90
2015,01,24,11,17,102.40
2015,01,24,11,18,109.00
2015,01,24,11,19,109.90
2015,01,24,11,20,117.30
2015,01,24,11,21,126.30
2015,01,24,11,22,123.50
2015,01,24,11,23,114.50
2015,01,24,11,24,114.30
2015,01,24,11,25,118.90
2015,01,24,11,26,114.20
2015,01,24,11,27,105.70
2015,01,24,11,28,106.50
2015,01,24,11,29,111.50
2015,01,24,11,30,114.00
2015,01,24,11,31,113.60
2015,01,24,11,32,113.40
2015,01,24,11,33,115.00
2015,01,24,11,34,118.40
2015,01,24,11,35,123.70
2015,01,24,11,36,127.00
2015,01,24,11,37,126.10
2015,01,24,11,38,120.70
2015,01,24,11,39,110.60
2015,01,24,11,40,99.90
2015,01,24,11,41,92.80
2015,01,24,11,42,87.30
2015,01,24,11,43,81.80
2015,01,24,11,44,78.10
2015,01,24,11,45,74.80
2015,01,24,11,46,70.50
2015,01,24,11,47,68.10
2015,01,24,11,48,67.00
2015,01,24,11,49,67.00
2015,01,24,11,50,67.00
2015,01,24,11,51,64.80
2015,01,24,11,52,59.30
2015,01,24,11,53,54.70
2015,01,24,11,54,52.10
2015,01,24,11,55,52.00
2015,01,24,11,56,52.00
2015,01,24,11,57,50.10
2015,01,24,11,58,48.10
2015,01,24,11,59,47.00
2015,01,24,12,00,47.00
2015,01,24,12,01,47.00
2015,01,24,12,02,47.90
2015,01,24,12,03,49.00
2015,01,24,12,04,49.00
2015,01,24,12,05,49.00
2015,01,24,12,06,50.80
2015,01,24,12,07,53.50
2015,01,24,12,08,54.00
2015,01,24,12,09,54.90
2015,01,24,12,10,56.00
2015,01,24,12,11,55.10
2015,01,24,12,12,55.80
2015,01,24,12,13,61.20
2015,01,24,12,14,68.20
2015,01,24,12,15,75.50
2015,01,24,12,16,79.90
2015,01,24,12,17,81.00
2015,01,24,12,18,84.20
2015,01,24,12,19,91.50
2015,01,24,12,20,95.00
2015,01,24,12,21,91.80
2015,01,24,12,22,83.70
2015,01,24,12,23,72.70
2015,01,24,12,24,64.10
2015,01,24,12,25,65.00
2015,01,24,12,26,67.90
2015,01,24,12,27,68.10
2015,01,24,12,28,64.80
2015,01,24,12,29,60.20
2015,01,24,12,30,59.80
2015,01,24,12,31,63.40
2015,01,24,12,32,67.20
2015,01,24,12,33,73.20
2015,01,24,12,34,81.10
2015,01,24,12,35,91.40
2015,01,24,12,36,104.80
2015,01,24,12,37,113.00
2015,01,24,12,38,108.50
2015,01,24,12,39,99.70
2015,01,24,12,40,93.20
2015,01,24,12,41,91.00
2015,01,24,12,42,88.80
2015,01,24,12,43,85.10
2015,01,24,12,44,80.40
2015,01,24,12,45,71.90
2015,01,24,12,46,66.10
2015,01,24,12,47,66.80
2015,01,24,12,48,69.00
2015,01,24,12,49,67.10
2015,01,24,12,50,63.60
2015,01,24,12,51,63.40
2015,01,24,12,52,67.20
2015,01,24,12,53,75.80
2015,01,24,12,54,84.40
2015,01,24,12,55,81.90
2015,01,24,12,56,76.60
2015,01,24,12,57,80.00
2015,01,24,12,58,87.30
2015,01,24,12,59,93.70
2015,01,24,13,00,97.00
2015,01,24,13,01,93.80
2015,01,24,13,02,90.00
2015,01,24,13,03,90.40
2015,01,24,13,04,90.60
2015,01,24,13,05,85.10
2015,01,24,13,06,77.70
2015,01,24,13,07,77.30
2015,01,24,13,08,83.10
2015,01,24,13,09,89.30
2015,01,24,13,10,87.80
2015,01,24,13,11,84.90
2015,01,24,13,12,92.60
2015,01,24,13,13,100.90
2015,01,24,13,14,101.10
2015,01,24,13,15,102.50
2015,01,24,13,16,107.80
2015,01,24,13,17,114.20
2015,01,24,13,18,120.20
2015,01,24,13,19,120.60
2015,01,24,13,20,110.80
2015,01,24,13,21,94.80
2015,01,24,13,22,79.70
2015,01,24,13,23,69.50
2015,01,24,13,24,69.40
2015,01,24,13,25,75.20
2015,01,24,13,26,80.80
2015,01,24,13,27,81.20
2015,01,24,13,28,79.00
2015,01,24,13,29,83.90
2015,01,24,13,30,94.00
2015,01,24,13,31,99.90
2015,01,24,13,32,103.30
2015,01,24,13,33,104.60
2015,01,24,13,34,99.10
2015,01,24,13,35,88.00
2015,01,24,13,36,82.10
2015,01,24,13,37,82.30
2015,01,24,13,38,85.80
2015,01,24,13,39,88.90
2015,01,24,13,40,90.50
2015,01,24,13,41,89.60
2015,01,24,13,42,86.20
2015,01,24,13,43,83.60
2015,01,24,13,44,82.00
2015,01,24,13,45,82.40
2015,01,24,13,46,85.80
2015,01,24,13,47,88.90
2015,01,24,13,48,86.50
2015,01,24,13,49,77.80
2015,01,24,13,50,68.80
2015,01,24,13,51,65.00
2015,01,24,13,52,68.20
2015,01,24,13,53,76.10
2015,01,24,13,54,85.10
2015,01,24,13,55,93.20
2015,01,24,13,56,97.00
2015,01,24,13,57,95.20
2015,01,24,13,58,91.70
2015,01,24,13,59,85.70
2015,01,24,14,00,76.90
2015,01,24,14,01,70.70
2015,01,24,14,02,70.30
2015,01,24,14,03,72.00
2015,01,24,14,04,69.80
2015,01,24,14,05,65.20
2015,01,24,14,06,63.00
2015,01,24,14,07,63.90
2015,01,24,14,08,64.00
2015,01,24,14,09,62.50
2015,01,24,14,10,61.10
2015,01,24,14,11,59.00
2015,01,24,14,12,57.10
2015,01,24,14,13,56.00
2015,01,24,14,14,55.10
2015,01,24,14,15,56.70
2015,01,24,14,16,63.20
2015,01,24,14,17,69.20
2015,01,24,14,18,70.60
2015,01,24,14,19,64.10
2015,01,24,14,20,54.00
2015,01,24,14,21,45.80
2015,01,24,14,22,39.60
2015,01,24,14,23,37.90
2015,01,24,14,24,43.50
2015,01,24,14,25,52.20
2015,01,24,14,26,56.00
2015,01,24,14,27,54.70
2015,01,24,14,28,48.50
2015,01,24,14,29,43.10
2015,01,24,14,30,39.80
2015,01,24,14,31,36.10
2015,01,24,14,32,31.70
2015,01,24,14,33,28.90
2015,01,24,14,34,32.40
2015,01,24,14,35,35.90
2015,01,24,14,36,36.00
2015,01,24,14,37,35.90
2015,01,24,14,38,37.90
2015,01,24,14,39,39.00
2015,01,24,14,40,38.10
2015,01,24,14,41,35.10
2015,01,24,14,42,30.60
2015,01,24,14,43,25.80
2015,01,24,14,44,24.40
2015,01,24,14,45,29.10
2015,01,24,14,46,38.80
2015,01,24,14,47,46.50
2015,01,24,14,48,44.80
2015,01,24,14,49,38.00
2015,01,24,14,50,33.00
2015,01,24,14,51,37.30
2015,01,24,14,52,44.40
2015,01,24,14,53,46.50
2015,01,24,14,54,43.10
2015,01,24,14,55,35.30
2015,01,24,14,56,30.00
2015,01,24,14,57,34.00
2015,01,24,14,58,39.50
2015,01,24,14,59,36.50
2015,01,24,15,00,29.20
2015,01,24,15,01,23.20
2015,01,24,15,02,22.80
2015,01,24,15,03,27.20
2015,01,24,15,04,31.40
2015,01,24,15,05,34.80
2015,01,24,15,06,38.00
2015,01,24,15,07,40.40
2015,01,24,15,08,43.00
2015,01,24,15,09,45.00
2015,01,24,15,10,47.50
2015,01,24,15,11,51.40
2015,01,24,15,12,54.90
2015,01,24,15,13,59.30
2015,01,24,15,14,68.20
2015,01,24,15,15,72.20
2015,01,24,15,16,68.50
2015,01,24,15,17,65.10
2015,01,24,15,18,60.80
2015,01,24,15,19,61.20
2015,01,24,15,20,63.70
2015,01,24,15,21,62.00
2015,01,24,15,22,62.50
2015,01,24,15,23,64.80
2015,01,24,15,24,66.10
2015,01,24,15,25,63.70
2015,01,24,15,26,60.10
2015,01,24,15,27,55.60
2015,01,24,15,28,53.50
2015,01,24,15,29,53.50
2015,01,24,15,30,51.20
2015,01,24,15,31,47.70
2015,01,24,15,32,44.20
2015,01,24,15,33,41.10
2015,01,24,15,34,42.70
2015,01,24,15,35,45.10
2015,01,24,15,36,44.90
2015,01,24,15,37,45.10
2015,01,24,15,38,44.90
2015,01,24,15,39,46.00
2015,01,24,15,40,46.00
2015,01,24,15,41,46.00
2015,01,24,15,42,45.10
2015,01,24,15,43,43.10
2015,01,24,15,44,42.90
2015,01,24,15,45,45.30
2015,01,24,15,46,47.90
2015,01,24,15,47,49.90
2015,01,24,15,48,51.90
2015,01,24,15,49,51.20
2015,01,24,15,50,46.80
2015,01,24,15,51,44.90
2015,01,24,15,52,46.00
2015,01,24,15,53,45.10
2015,01,24,15,54,45.30
2015,01,24,15,55,48.80
2015,01,24,15,56,50.10
2015,01,24,15,57,49.00
2015,01,24,15,58,50.80
2015,01,24,15,59,54.40
2015,01,24,16,00,56.90
2015,01,24,16,01,54.80
2015,01,24,16,02,47.00
2015,01,24,16,03,38.80
2015,01,24,16,04,33.50
2015,01,24,16,05,31.10
2015,01,24,16,06,28.20
2015,01,24,16,07,26.00
2015,01,24,16,08,26.90
2015,01,24,16,09,28.90
2015,01,24,16,10,27.80
2015,01,24,16,11,21.00
2015,01,24,16,12,16.00
2015,01,24,16,13,16.90
2015,01,24,16,14,18.00
2015,01,24,16,15,18.50
2015,01,24,16,16,20.00
2015,01,24,16,17,21.00
2015,01,24,16,18,19.60
2015,01,24,16,19,17.10
2015,01,24,16,20,15.10
2015,01,24,16,21,14.90
2015,01,24,16,22,16.00
2015,01,24,16,23,16.00
2015,01,24,16,24,15.10
2015,01,24,16,25,13.10
2015,01,24,16,26,12.00
2015,01,24,16,27,12.00
2015,01,24,16,28,10.60
2015,01,24,16,29,8.10
2015,01,24,16,30,7.00
2015,01,24,16,31,7.00
2015,01,24,16,32,7.00
2015,01,24,16,33,7.00
2015,01,24,16,34,7.90
2015,01,24,16,35,8.10
2015,01,24,16,36,6.10
2015,01,24,16,37,5.00
2015,01,24,16,38,5.00
2015,01,24,16,39,5.00
2015,01,24,16,40,5.00
2015,01,24,16,41,2.60
2015,01,24,16,42,0.00
2015,01,24,16,43,0.00
2015,01,24,16,44,0.00
2015,01,24,16,45,0.00
2015,01,24,16,46,0.00
2015,01,24,16,47,0.00
2015,01,24,16,48,0.00
2015,01,24,16,49,0.00
2015,01,24,16,50,0.00
2015,01,24,16,51,0.00
2015,01,24,16,52,0.00
2015,01,24,16,53,0.00
2015,01,24,16,54,0.00
2015,01,24,16,55,0.00
2015,01,24,16,56,0.00
2015,01,24,16,57,0.00
2015,01,24,16,58,0.00
2015,01,24,16,59,0.00
2015,01,24,17,00,0.00
2015,01,24,17,01,0.00
2015,01,24,17,02,0.00
2015,01,24,17,03,0.00
2015,01,24,17,04,0.00
2015,01,24,17,05,0.00
2015,01,24,17,06,0.00
2015,01,24,17,07,0.00
2015,01,24,17,08,0.00
2015,01,24,17,09,0.00
2015,01,24,17,10,0.00
2015,01,24,17,11,0.00
2015,01,24,17,12,0.00
2015,01,24,17,13,0.00
2015,01,24,17,14,0.00
2015,01,24,17,15,0.00
2015,01,24,17,16,0.00
2015,01,24,17,17,0.00
2015,01,24,17,18,0.00
2015,01,24,17,19,0.00
2015,01,24,17,20,0.00
2015,01,24,17,21,0.00
2015,01,24,17,22,0.00
2015,01,24,17,23,0.00
2015,01,24,17,24,0.00
2015,01,24,17,25,0.00
2015,01,24,17,26,0.00
2015,01,24,17,27,0.00
2015,01,24,17,28,0.00
2015,01,24,17,29,0.00
2015,01,24,17,30,0.00
2015,01,24,17,31,0.00
2015,01,24,17,32,0.00
2015,01,24,17,33,0.00
2015,01,24,17,34,0.00
2015,01,24,17,35,0.00
2015,01,24,17,36,0.00
2015,01,24,17,37,0.00
2015,01,24,17,38,0.00
2015,01,24,17,39,0.00
2015,01,24,17,40,0.00
2015,01,24,17,41,0.00
2015,01,24,17,42,0.00
2015,01,24,17,43,0.00